EW7584 Weather Reports


Display with metric or nautical units.
time (UTC)temp
F
wind
direction
speed
MPH
gust
MPH
rain 1hr
in
rain 24hr
in
rain mn
in
humidity
%
barometer
mb
20260503054528 48 291 0.0 0.0 0.00 0.00 0.00 79 923.8
20260503053015 50 291 0.0 0.0 0.00 0.00 0.00 76 923.8
20260503051542 51 291 0.0 0.0 0.00 0.00 0.00 75 923.9
20260503050041 52 290 0.0 0.0 0.00 0.00 0.00 73 923.9
20260503044547 52 290 0.0 0.0 0.00 0.00 0.00 70 923.9
20260503043040 54 291 0.0 0.0 0.00 0.00 0.00 67 923.8
20260503041539 56 291 0.0 0.0 0.00 0.00 0.00 63 923.6
20260503040039 60 290 0.0 0.0 0.00 0.00 0.00 55 923.5
20260503034555 63 290 0.0 1.0 0.00 0.00 0.00 50 923.5
20260503034518 63 291 0.0 1.0 0.00 0.00 0.00 49 923.5
20260503033039 65 291 1.0 2.0 0.00 0.00 0.00 47 923.3
20260503031537 66 276 1.0 3.0 0.00 0.00 0.00 44 923.1
20260503030042 68 273 0.0 1.0 0.00 0.00 0.00 41 923.0
20260503024536 69 273 0.0 1.0 0.00 0.00 0.00 38 923.0
20260503023036 70 273 1.0 2.0 0.00 0.00 0.00 40 922.9
20260503021636 72 273 0.0 2.0 0.00 0.00 0.00 37 922.9
20260503020032 72 303 1.0 3.0 0.00 0.00 0.00 35 922.8
20260503014534 73 283 1.0 3.0 0.00 0.00 0.00 37 922.9
20260503013031 73 309 2.0 3.0 0.00 0.00 0.00 37 922.9
20260503011530 74 253 2.0 3.0 0.00 0.00 0.00 38 922.9
20260503010029 75 290 1.0 3.0 0.00 0.00 0.00 36 923.1
20260503004530 75 321 2.0 4.0 0.00 0.00 0.00 34 923.1
20260503003041 76 308 2.0 6.0 0.00 0.00 0.00 33 923.1
20260503001545 76 306 2.0 4.0 0.00 0.00 0.00 31 923.2
20260503000026 76 292 3.0 9.0 0.00 0.00 0.00 31 923.2
20260502234524 76 274 3.0 5.0 0.00 0.00 0.00 31 923.3
20260502233025 77 279 5.0 9.0 0.00 0.00 0.00 27 923.5
20260502231518 77 21 1.0 4.0 0.00 0.00 0.00 28 923.5
20260502230017 77 283 4.0 7.0 0.00 0.00 0.00 25 923.6
20260502224615 77 313 4.0 8.0 0.00 0.00 0.00 30 923.8
20260502223016 77 314 4.0 6.0 0.00 0.00 0.00 29 923.9
20260502221508 77 279 6.0 12.0 0.00 0.00 0.00 23 924.0
20260502220007 77 279 3.0 11.0 0.00 0.00 0.00 22 924.1
20260502214505 78 72 2.0 3.0 0.00 0.00 0.00 24 924.2
20260502213005 77 273 0.0 5.0 0.00 0.00 0.00 26 924.3
20260502211509 77 332 3.0 8.0 0.00 0.00 0.00 30 924.5
20260502210124 77 329 2.0 7.0 0.00 0.00 0.00 25 924.5
20260502204557 80 250 0.0 5.0 0.00 0.00 0.00 24 924.6
20260502203055 77 284 0.0 6.0 0.00 0.00 0.00 27 924.7
20260502200038 77 243 1.0 3.0 0.00 0.00 0.00 27 924.8
20260502194538 76 277 2.0 7.0 0.00 0.00 0.00 26 924.9
20260502193039 79 134 0.0 4.0 0.00 0.00 0.00 28 925.0
20260502191530 77 94 2.0 8.0 0.00 0.00 0.00 28 925.1
20260502190029 76 81 2.0 6.0 0.00 0.00 0.00 27 925.2
20260502184541 76 77 4.0 7.0 0.00 0.00 0.00 30 925.3
20260502183024 76 61 1.0 3.0 0.00 0.00 0.00 34 925.4
20260502181523 75 70 2.0 5.0 0.00 0.00 0.00 33 925.4
20260502163100 69 65 5.0 11.0 0.00 0.00 0.00 39 925.7
20260502161554 67 78 7.0 11.0 0.00 0.00 0.00 41 925.7
20260502151538 59 68 5.0 6.0 0.00 0.00 0.00 61 925.8
20260502123003 40 285 0.0 0.0 0.00 0.00 0.00 88 925.3
20260502121559 42 285 0.0 0.0 0.00 0.00 0.00 86 925.3
20260502114600 43 285 0.0 4.0 0.00 0.00 0.00 87 925.3
20260502113056 43 214 0.0 0.0 0.00 0.00 0.00 86 925.2
20260502111525 43 214 0.0 0.0 0.00 0.00 0.00 87 925.3
20260502110025 43 214 0.0 0.0 0.00 0.00 0.00 86 925.2
20260502104531 43 214 0.0 0.0 0.00 0.00 0.00 88 925.2
20260502103021 43 214 0.0 0.0 0.00 0.00 0.00 87 925.2
20260502101521 42 214 0.0 0.0 0.00 0.00 0.00 89 925.2
20260502091509 43 214 0.0 0.0 0.00 0.00 0.00 87 925.3
20260502080104 45 214 0.0 0.0 0.00 0.00 0.00 83 925.5
20260502070051 45 212 0.0 0.0 0.00 0.00 0.00 88 925.4
20260502064545 45 212 0.0 0.0 0.00 0.00 0.00 85 925.4
20260502063043 45 212 0.0 0.0 0.00 0.00 0.00 87 925.4
20260502061507 45 212 0.0 0.0 0.00 0.00 0.00 85 925.4